Time,TemperatureF,DewpointF,PressureIn,WindDirection,WindDirectionDegrees,WindSpeedMPH,WindSpeedGustMPH,Humidity,HourlyPrecipIn,Conditions,Clouds,dailyrainin,SoftwareType,DateUTC
2013-08-24 00:01:00,87.3,67.5,29.92,NW,321,0.0,2.0,52,0.00,,,0.00,VWS V14.01,2013-08-24 05:01:00,
2013-08-24 00:06:00,87.2,68.0,29.92,NW,323,0.0,0.0,53,0.00,,,0.00,VWS V14.01,2013-08-24 05:06:00,
2013-08-24 00:11:00,87.2,68.0,29.92,NW,323,0.0,2.0,53,0.00,,,0.00,VWS V14.01,2013-08-24 05:11:00,
2013-08-24 00:16:00,87.1,68.4,29.92,NW,323,0.0,2.0,54,0.00,,,0.00,VWS V14.01,2013-08-24 05:16:00,
2013-08-24 00:21:00,87.0,67.8,29.92,NW,323,0.0,0.0,53,0.00,,,0.00,VWS V14.01,2013-08-24 05:21:00,
2013-08-24 00:26:00,86.8,68.2,29.92,NNW,331,1.0,2.0,54,0.00,,,0.00,VWS V14.01,2013-08-24 05:26:00,
2013-08-24 00:31:00,86.7,68.1,29.92,NNW,331,0.0,2.0,54,0.00,,,0.00,VWS V14.01,2013-08-24 05:31:00,
2013-08-24 00:36:00,86.6,68.0,29.92,NNW,331,0.0,0.0,54,0.00,,,0.00,VWS V14.01,2013-08-24 05:36:00,
2013-08-24 00:41:00,86.4,68.3,29.92,NNW,331,0.0,0.0,55,0.00,,,0.00,VWS V14.01,2013-08-24 05:41:00,
2013-08-24 00:46:00,86.3,68.2,29.92,NNW,331,0.0,0.0,55,0.00,,,0.00,VWS V14.01,2013-08-24 05:46:00,
2013-08-24 00:51:00,86.1,68.6,29.92,NNW,331,0.0,0.0,56,0.00,,,0.00,VWS V14.01,2013-08-24 05:51:00,
2013-08-24 00:56:00,85.9,68.4,29.92,NNW,336,0.0,0.0,56,0.00,,,0.00,VWS V14.01,2013-08-24 05:56:00,
2013-08-24 01:01:00,85.7,68.7,29.92,East,84,1.0,3.0,57,0.00,,,0.00,VWS V14.01,2013-08-24 06:01:00,
2013-08-24 01:06:00,85.5,68.5,29.92,East,84,0.0,2.0,57,0.00,,,0.00,VWS V14.01,2013-08-24 06:06:00,
2013-08-24 01:11:00,85.2,68.3,29.92,East,84,0.0,1.0,57,0.00,,,0.00,VWS V14.01,2013-08-24 06:11:00,
2013-08-24 01:16:00,85.1,68.7,29.92,East,84,0.0,0.0,58,0.00,,,0.00,VWS V14.01,2013-08-24 06:16:00,
2013-08-24 01:21:00,84.9,68.5,29.92,East,84,0.0,0.0,58,0.00,,,0.00,VWS V14.01,2013-08-24 06:21:00,
2013-08-24 01:26:00,84.8,68.4,29.92,East,84,0.0,0.0,58,0.00,,,0.00,VWS V14.01,2013-08-24 06:26:00,
2013-08-24 01:31:00,84.6,68.2,29.92,East,84,0.0,0.0,58,0.00,,,0.00,VWS V14.01,2013-08-24 06:31:00,
2013-08-24 01:36:00,84.4,68.5,29.92,East,84,0.0,0.0,59,0.00,,,0.00,VWS V14.01,2013-08-24 06:36:00,
2013-08-24 01:41:00,84.3,68.4,29.92,East,84,0.0,0.0,59,0.00,,,0.00,VWS V14.01,2013-08-24 06:41:00,
2013-08-24 01:46:00,84.0,68.6,29.92,East,84,0.0,0.0,60,0.00,,,0.00,VWS V14.01,2013-08-24 06:46:00,
2013-08-24 01:51:00,83.8,68.9,29.92,East,84,0.0,0.0,61,0.00,,,0.00,VWS V14.01,2013-08-24 06:51:00,
2013-08-24 01:56:00,83.5,68.7,29.92,East,84,0.0,0.0,61,0.00,,,0.00,VWS V14.01,2013-08-24 06:56:00,
2013-08-24 02:01:00,83.3,68.5,29.92,East,84,0.0,0.0,61,0.00,,,0.00,VWS V14.01,2013-08-24 07:01:00,
2013-08-24 02:06:00,83.1,68.3,29.92,East,84,0.0,0.0,61,0.00,,,0.00,VWS V14.01,2013-08-24 07:06:00,
2013-08-24 02:11:00,82.8,68.5,29.92,East,84,0.0,0.0,62,0.00,,,0.00,VWS V14.01,2013-08-24 07:11:00,
2013-08-24 02:16:00,82.6,68.3,29.92,East,84,0.0,0.0,62,0.00,,,0.00,VWS V14.01,2013-08-24 07:16:00,
2013-08-24 02:21:00,82.4,68.1,29.92,East,84,0.0,0.0,62,0.00,,,0.00,VWS V14.01,2013-08-24 07:21:00,
2013-08-24 02:26:00,82.1,68.3,29.92,ESE,120,0.0,2.0,63,0.00,,,0.00,VWS V14.01,2013-08-24 07:26:00,
2013-08-24 02:31:00,82.0,68.6,29.92,ESE,120,0.0,0.0,64,0.00,,,0.00,VWS V14.01,2013-08-24 07:31:00,
2013-08-24 02:36:00,81.8,68.4,29.92,ESE,120,0.0,0.0,64,0.00,,,0.00,VWS V14.01,2013-08-24 07:36:00,
2013-08-24 02:41:00,81.6,68.7,29.92,ESE,120,2.0,2.0,65,0.00,,,0.00,VWS V14.01,2013-08-24 07:41:00,
2013-08-24 02:46:00,81.4,68.5,29.92,ESE,120,1.0,2.0,65,0.00,,,0.00,VWS V14.01,2013-08-24 07:46:00,
2013-08-24 02:51:00,81.3,68.4,29.92,ESE,120,0.0,3.0,65,0.00,,,0.00,VWS V14.01,2013-08-24 07:51:00,
2013-08-24 02:56:00,81.2,68.3,29.92,ESE,120,0.0,0.0,65,0.00,,,0.00,VWS V14.01,2013-08-24 07:56:00,
2013-08-24 03:01:00,81.1,68.7,29.92,ESE,120,0.0,0.0,66,0.00,,,0.00,VWS V14.01,2013-08-24 08:01:00,
2013-08-24 03:06:00,81.0,68.6,29.92,ESE,120,0.0,0.0,66,0.00,,,0.00,VWS V14.01,2013-08-24 08:06:00,
2013-08-24 03:11:00,80.8,68.4,29.92,ESE,120,0.0,0.0,66,0.00,,,0.00,VWS V14.01,2013-08-24 08:11:00,
2013-08-24 03:16:00,80.7,68.3,29.92,ESE,120,0.0,0.0,66,0.00,,,0.00,VWS V14.01,2013-08-24 08:16:00,
2013-08-24 03:21:00,80.6,68.6,29.92,ESE,120,1.0,2.0,67,0.00,,,0.00,VWS V14.01,2013-08-24 08:21:00,
2013-08-24 03:26:00,80.5,68.5,29.92,ENE,68,1.0,3.0,67,0.00,,,0.00,VWS V14.01,2013-08-24 08:26:00,
2013-08-24 03:31:00,80.4,68.4,29.92,East,89,2.0,5.0,67,0.00,,,0.00,VWS V14.01,2013-08-24 08:31:00,
2013-08-24 03:36:00,80.2,68.3,29.93,East,86,2.0,3.0,67,0.00,,,0.00,VWS V14.01,2013-08-24 08:36:00,
2013-08-24 03:41:00,80.2,68.3,29.93,East,92,2.0,5.0,67,0.00,,,0.00,VWS V14.01,2013-08-24 08:41:00,
2013-08-24 03:46:00,80.1,68.2,29.93,East,92,1.0,2.0,67,0.00,,,0.00,VWS V14.01,2013-08-24 08:46:00,
2013-08-24 03:51:00,80.1,68.2,29.93,East,87,1.0,3.0,67,0.00,,,0.00,VWS V14.01,2013-08-24 08:51:00,
2013-08-24 03:56:00,80.1,68.2,29.93,East,95,2.0,5.0,67,0.00,,,0.00,VWS V14.01,2013-08-24 08:56:00,
2013-08-24 04:01:00,80.1,68.2,29.93,East,80,2.0,3.0,67,0.00,,,0.00,VWS V14.01,2013-08-24 09:01:00,
2013-08-24 04:06:00,80.1,68.2,29.93,East,81,1.0,5.0,67,0.00,,,0.00,VWS V14.01,2013-08-24 09:06:00,
2013-08-24 04:11:00,80.1,68.2,29.93,ESE,108,2.0,6.0,67,0.00,,,0.00,VWS V14.01,2013-08-24 09:11:00,
2013-08-24 04:16:00,80.1,68.2,29.93,ESE,106,3.0,5.0,67,0.00,,,0.00,VWS V14.01,2013-08-24 09:16:00,
2013-08-24 04:21:00,80.1,68.2,29.93,East,89,1.0,5.0,67,0.00,,,0.00,VWS V14.01,2013-08-24 09:21:00,
2013-08-24 04:25:00,80.1,68.2,29.93,East,93,3.0,3.0,67,0.00,,,0.00,VWS V14.01,2013-08-24 09:25:00,
2013-08-24 04:30:00,80.1,68.2,29.93,East,90,2.0,5.0,67,0.00,,,0.00,VWS V14.01,2013-08-24 09:30:00,
2013-08-24 04:35:00,80.1,68.2,29.93,East,90,2.0,3.0,67,0.00,,,0.00,VWS V14.01,2013-08-24 09:35:00,
2013-08-24 04:40:00,80.2,68.3,29.93,East,101,1.0,5.0,67,0.00,,,0.00,VWS V14.01,2013-08-24 09:40:00,
2013-08-24 04:45:00,80.1,68.2,29.93,East,85,2.0,3.0,67,0.00,,,0.00,VWS V14.01,2013-08-24 09:45:00,
2013-08-24 04:50:00,80.1,68.2,29.93,East,98,1.0,3.0,67,0.00,,,0.00,VWS V14.01,2013-08-24 09:50:00,
2013-08-24 04:55:00,80.1,68.2,29.93,ESE,103,1.0,3.0,67,0.00,,,0.00,VWS V14.01,2013-08-24 09:55:00,
2013-08-24 05:00:00,80.0,68.5,29.93,East,100,3.0,5.0,68,0.00,,,0.00,VWS V14.01,2013-08-24 10:00:00,
2013-08-24 05:05:00,80.0,68.5,29.93,SE,146,0.0,4.0,68,0.00,,,0.00,VWS V14.01,2013-08-24 10:05:00,
2013-08-24 05:10:00,80.0,68.5,29.93,East,96,3.0,7.0,68,0.00,,,0.00,VWS V14.01,2013-08-24 10:10:00,
2013-08-24 05:15:00,79.9,68.4,29.93,East,92,5.0,5.0,68,0.00,,,0.00,VWS V14.01,2013-08-24 10:15:00,
2013-08-24 05:20:00,79.9,68.4,29.94,East,96,3.0,7.0,68,0.00,,,0.00,VWS V14.01,2013-08-24 10:20:00,
2013-08-24 05:25:00,79.9,68.4,29.94,East,84,2.0,5.0,68,0.00,,,0.00,VWS V14.01,2013-08-24 10:25:00,
2013-08-24 05:30:00,79.9,68.4,29.94,East,92,0.0,5.0,68,0.00,,,0.00,VWS V14.01,2013-08-24 10:30:00,
2013-08-24 05:35:00,79.9,68.4,29.94,ESE,111,1.0,2.0,68,0.00,,,0.00,VWS V14.01,2013-08-24 10:35:00,
2013-08-24 05:40:00,79.9,68.4,29.94,ESE,116,1.0,4.0,68,0.00,,,0.00,VWS V14.01,2013-08-24 10:40:00,
2013-08-24 05:45:00,79.9,68.4,29.94,ESE,116,1.0,2.0,68,0.00,,,0.00,VWS V14.01,2013-08-24 10:45:00,
2013-08-24 05:50:00,79.8,68.3,29.94,ESE,116,0.0,1.0,68,0.00,,,0.00,VWS V14.01,2013-08-24 10:50:00,
2013-08-24 05:55:00,79.8,68.3,29.94,ESE,116,1.0,2.0,68,0.00,,,0.00,VWS V14.01,2013-08-24 10:55:00,
2013-08-24 06:00:00,79.7,68.6,29.94,ESE,116,1.0,2.0,69,0.00,,,0.00,VWS V14.01,2013-08-24 11:00:00,
2013-08-24 06:05:00,79.6,68.5,29.94,ESE,114,2.0,3.0,69,0.00,,,0.00,VWS V14.01,2013-08-24 11:05:00,
2013-08-24 06:10:00,79.5,68.9,29.94,ESE,109,3.0,3.0,70,0.00,,,0.00,VWS V14.01,2013-08-24 11:10:00,
2013-08-24 06:15:00,79.4,68.8,29.94,SSE,161,3.0,4.0,70,0.00,,,0.00,VWS V14.01,2013-08-24 11:15:00,
2013-08-24 06:20:00,79.3,68.7,29.95,SE,124,0.0,5.0,70,0.00,,,0.00,VWS V14.01,2013-08-24 11:20:00,
2013-08-24 06:25:00,79.3,68.7,29.95,ESE,119,1.0,2.0,70,0.00,,,0.00,VWS V14.01,2013-08-24 11:25:00,
2013-08-24 06:30:00,79.3,69.1,29.95,ESE,118,1.0,3.0,71,0.00,,,0.00,VWS V14.01,2013-08-24 11:30:00,
2013-08-24 06:35:00,79.3,68.7,29.95,East,99,5.0,5.0,70,0.00,,,0.00,VWS V14.01,2013-08-24 11:35:00,
2013-08-24 06:40:00,79.3,69.1,29.95,SE,132,0.0,2.0,71,0.00,,,0.00,VWS V14.01,2013-08-24 11:40:00,
2013-08-24 06:45:00,79.3,69.1,29.95,SE,124,2.0,3.0,71,0.00,,,0.00,VWS V14.01,2013-08-24 11:45:00,
2013-08-24 06:50:00,79.3,69.1,29.95,ESE,112,1.0,7.0,71,0.00,,,0.00,VWS V14.01,2013-08-24 11:50:00,
2013-08-24 06:55:00,79.2,69.0,29.96,East,101,3.0,3.0,71,0.00,,,0.00,VWS V14.01,2013-08-24 11:55:00,
2013-08-24 07:00:00,79.2,69.0,29.96,ESE,105,2.0,6.0,71,0.00,,,0.00,VWS V14.01,2013-08-24 12:00:00,
2013-08-24 07:05:00,79.1,69.3,29.96,SE,132,0.0,6.0,72,0.00,,,0.00,VWS V14.01,2013-08-24 12:05:00,
2013-08-24 07:10:00,79.1,69.3,29.96,ESE,123,2.0,4.0,72,0.00,,,0.00,VWS V14.01,2013-08-24 12:10:00,
2013-08-24 07:15:00,79.0,69.2,29.97,ESE,120,1.0,3.0,72,0.00,,,0.00,VWS V14.01,2013-08-24 12:15:00,
2013-08-24 07:20:00,79.0,69.2,29.97,ESE,103,3.0,4.0,72,0.00,,,0.00,VWS V14.01,2013-08-24 12:20:00,
2013-08-24 07:25:00,79.0,69.2,29.97,ESE,103,1.0,3.0,72,0.00,,,0.00,VWS V14.01,2013-08-24 12:25:00,
2013-08-24 07:30:00,79.0,69.2,29.97,East,97,0.0,3.0,72,0.00,,,0.00,VWS V14.01,2013-08-24 12:30:00,
2013-08-24 07:35:00,78.9,69.5,29.97,East,99,0.0,0.0,73,0.00,,,0.00,VWS V14.01,2013-08-24 12:35:00,
2013-08-24 07:40:00,78.9,69.5,29.97,East,99,0.0,2.0,73,0.00,,,0.00,VWS V14.01,2013-08-24 12:40:00,
2013-08-24 07:45:00,78.9,69.5,29.98,East,99,0.0,0.0,73,0.00,,,0.00,VWS V14.01,2013-08-24 12:45:00,
2013-08-24 07:50:00,79.0,70.0,29.97,East,99,1.0,2.0,74,0.00,,,0.00,VWS V14.01,2013-08-24 12:50:00,
2013-08-24 07:55:00,79.0,70.0,29.98,East,95,1.0,2.0,74,0.00,,,0.00,VWS V14.01,2013-08-24 12:55:00,
2013-08-24 08:00:00,79.1,70.1,29.98,East,91,2.0,2.0,74,0.00,,,0.00,VWS V14.01,2013-08-24 13:00:00,
2013-08-24 08:05:00,79.2,69.8,29.98,East,91,2.0,2.0,73,0.00,,,0.00,VWS V14.01,2013-08-24 13:05:00,
2013-08-24 08:10:00,79.3,70.3,29.98,East,90,2.0,2.0,74,0.00,,,0.00,VWS V14.01,2013-08-24 13:10:00,
2013-08-24 08:15:00,79.5,70.1,29.98,ESE,112,2.0,2.0,73,0.00,,,0.00,VWS V14.01,2013-08-24 13:15:00,
2013-08-24 08:20:00,79.8,70.0,29.99,East,91,2.0,5.0,72,0.00,,,0.00,VWS V14.01,2013-08-24 13:20:00,
2013-08-24 08:25:00,80.0,70.2,29.99,ENE,72,1.0,5.0,72,0.00,,,0.00,VWS V14.01,2013-08-24 13:25:00,
2013-08-24 08:30:00,80.4,70.6,29.99,East,86,6.0,6.0,72,0.00,,,0.00,VWS V14.01,2013-08-24 13:30:00,
2013-08-24 08:35:00,80.7,70.4,29.99,East,95,3.0,5.0,71,0.00,,,0.00,VWS V14.01,2013-08-24 13:35:00,
2013-08-24 08:40:00,81.0,70.3,29.99,ESE,121,0.0,3.0,70,0.00,,,0.00,VWS V14.01,2013-08-24 13:40:00,
2013-08-24 08:45:00,81.3,70.6,29.99,East,100,1.0,1.0,70,0.00,,,0.00,VWS V14.01,2013-08-24 13:45:00,
2013-08-24 08:50:00,81.7,70.6,29.99,ESE,113,2.0,3.0,69,0.00,,,0.00,VWS V14.01,2013-08-24 13:50:00,
2013-08-24 08:55:00,82.0,70.4,29.99,East,97,1.0,1.0,68,0.00,,,0.00,VWS V14.01,2013-08-24 13:55:00,
2013-08-24 09:00:00,82.5,70.9,29.99,East,89,2.0,5.0,68,0.00,,,0.00,VWS V14.01,2013-08-24 14:00:00,
2013-08-24 09:05:00,82.9,70.8,29.99,East,94,1.0,5.0,67,0.00,,,0.00,VWS V14.01,2013-08-24 14:05:00,
2013-08-24 09:10:00,83.3,71.2,29.99,SE,140,1.0,3.0,67,0.00,,,0.00,VWS V14.01,2013-08-24 14:10:00,
2013-08-24 09:15:00,83.8,70.8,29.99,SE,140,0.0,2.0,65,0.00,,,0.00,VWS V14.01,2013-08-24 14:15:00,
2013-08-24 09:20:00,84.3,71.3,29.99,East,98,2.0,2.0,65,0.00,,,0.00,VWS V14.01,2013-08-24 14:20:00,
2013-08-24 09:25:00,84.7,71.2,29.99,ESE,116,0.0,2.0,64,0.00,,,0.00,VWS V14.01,2013-08-24 14:25:00,
2013-08-24 09:30:00,85.2,71.7,30.00,East,93,5.0,5.0,64,0.00,,,0.00,VWS V14.01,2013-08-24 14:30:00,
2013-08-24 09:35:00,85.7,71.7,29.99,East,89,5.0,6.0,63,0.00,,,0.00,VWS V14.01,2013-08-24 14:35:00,
2013-08-24 09:40:00,86.3,71.8,30.00,East,88,3.0,3.0,62,0.00,,,0.00,VWS V14.01,2013-08-24 14:40:00,
2013-08-24 09:45:00,86.8,71.8,30.00,ESE,116,0.0,1.0,61,0.00,,,0.00,VWS V14.01,2013-08-24 14:45:00,
2013-08-24 09:50:00,87.4,71.3,29.99,SE,138,1.0,3.0,59,0.00,,,0.00,VWS V14.01,2013-08-24 14:50:00,
2013-08-24 09:55:00,87.9,71.3,29.99,ESE,121,2.0,2.0,58,0.00,,,0.00,VWS V14.01,2013-08-24 14:55:00,
2013-08-24 10:00:00,88.4,71.8,30.00,SE,125,1.0,1.0,58,0.00,,,0.00,VWS V14.01,2013-08-24 15:00:00,
2013-08-24 10:05:00,88.8,72.1,30.00,ESE,111,2.0,3.0,58,0.00,,,0.00,VWS V14.01,2013-08-24 15:05:00,
2013-08-24 10:10:00,89.3,72.1,30.00,ESE,106,0.0,2.0,57,0.00,,,0.00,VWS V14.01,2013-08-24 15:10:00,
2013-08-24 10:15:00,89.7,72.4,30.00,ESE,106,0.0,2.0,57,0.00,,,0.00,VWS V14.01,2013-08-24 15:15:00,
2013-08-24 10:20:00,90.4,72.6,30.00,East,94,0.0,3.0,56,0.00,,,0.00,VWS V14.01,2013-08-24 15:20:00,
2013-08-24 10:25:00,91.1,72.7,30.00,East,100,2.0,2.0,55,0.00,,,0.00,VWS V14.01,2013-08-24 15:25:00,
2013-08-24 10:30:00,91.7,72.7,30.00,ENE,69,1.0,2.0,54,0.00,,,0.00,VWS V14.01,2013-08-24 15:30:00,
2013-08-24 10:35:00,92.2,72.6,30.00,East,84,3.0,5.0,53,0.00,,,0.00,VWS V14.01,2013-08-24 15:35:00,
2013-08-24 10:40:00,92.7,72.5,30.00,ESE,115,4.0,4.0,52,0.00,,,0.00,VWS V14.01,2013-08-24 15:40:00,
2013-08-24 10:45:00,93.1,72.9,30.00,SE,130,1.0,1.0,52,0.00,,,0.00,VWS V14.01,2013-08-24 15:45:00,
2013-08-24 10:50:00,93.5,72.1,30.00,NE,44,2.0,3.0,50,0.00,,,0.00,VWS V14.01,2013-08-24 15:50:00,
2013-08-24 10:55:00,93.9,72.4,30.00,NNE,27,3.0,4.0,50,0.00,,,0.00,VWS V14.01,2013-08-24 15:55:00,
2013-08-24 11:00:00,94.4,72.9,30.00,NNE,23,4.0,5.0,50,0.00,,,0.00,VWS V14.01,2013-08-24 16:00:00,
2013-08-24 11:05:00,94.8,72.1,30.00,East,89,0.0,2.0,48,0.00,,,0.00,VWS V14.01,2013-08-24 16:05:00,
2013-08-24 11:10:00,95.1,72.3,30.00,ENE,58,4.0,4.0,48,0.00,,,0.00,VWS V14.01,2013-08-24 16:10:00,
2013-08-24 11:15:00,95.6,72.8,30.00,ENE,67,1.0,2.0,48,0.00,,,0.00,VWS V14.01,2013-08-24 16:15:00,
2013-08-24 11:20:00,95.9,71.8,30.00,North,355,3.0,5.0,46,0.00,,,0.00,VWS V14.01,2013-08-24 16:20:00,
2013-08-24 11:25:00,96.3,72.2,30.00,ENE,72,2.0,8.0,46,0.00,,,0.00,VWS V14.01,2013-08-24 16:25:00,
2013-08-24 11:30:00,96.4,72.3,30.00,ENE,74,2.0,7.0,46,0.00,,,0.00,VWS V14.01,2013-08-24 16:30:00,
2013-08-24 11:35:00,96.7,72.5,30.00,ESE,115,0.0,5.0,46,0.00,,,0.00,VWS V14.01,2013-08-24 16:35:00,
2013-08-24 11:40:00,96.9,72.7,30.00,ESE,103,5.0,5.0,46,0.00,,,0.00,VWS V14.01,2013-08-24 16:40:00,
2013-08-24 11:45:00,97.0,71.5,30.00,ESE,114,3.0,3.0,44,0.00,,,0.00,VWS V14.01,2013-08-24 16:45:00,
2013-08-24 11:50:00,97.3,71.8,30.00,ENE,57,3.0,3.0,44,0.00,,,0.00,VWS V14.01,2013-08-24 16:50:00,
2013-08-24 11:55:00,97.7,70.7,30.00,South,172,4.0,8.0,42,0.00,,,0.00,VWS V14.01,2013-08-24 16:55:00,
2013-08-24 12:00:00,97.7,72.1,30.00,SE,132,6.0,6.0,44,0.00,,,0.00,VWS V14.01,2013-08-24 17:00:00,
2013-08-24 12:05:00,97.9,73.0,30.00,SSE,150,3.0,4.0,45,0.00,,,0.00,VWS V14.01,2013-08-24 17:05:00,
2013-08-24 12:10:00,98.0,71.7,30.00,SE,140,3.0,6.0,43,0.00,,,0.00,VWS V14.01,2013-08-24 17:10:00,
2013-08-24 12:15:00,98.0,71.7,30.00,ESE,113,2.0,7.0,43,0.00,,,0.00,VWS V14.01,2013-08-24 17:15:00,
2013-08-24 12:20:00,98.0,71.0,30.00,ENE,70,3.0,9.0,42,0.00,,,0.00,VWS V14.01,2013-08-24 17:20:00,
2013-08-24 12:25:00,98.2,71.2,29.99,SE,133,3.0,5.0,42,0.00,,,0.00,VWS V14.01,2013-08-24 17:25:00,
2013-08-24 12:30:00,98.3,70.6,29.99,NW,304,1.0,3.0,41,0.00,,,0.00,VWS V14.01,2013-08-24 17:30:00,
2013-08-24 12:35:00,98.7,70.2,29.99,SE,138,6.0,6.0,40,0.00,,,0.00,VWS V14.01,2013-08-24 17:35:00,
2013-08-24 12:40:00,98.8,69.6,29.99,ESE,123,2.0,3.0,39,0.00,,,0.00,VWS V14.01,2013-08-24 17:40:00,
2013-08-24 12:45:00,98.6,70.1,29.99,ESE,121,4.0,7.0,40,0.00,,,0.00,VWS V14.01,2013-08-24 17:45:00,
2013-08-24 12:50:00,98.4,71.4,29.99,ENE,74,1.0,5.0,42,0.00,,,0.00,VWS V14.01,2013-08-24 17:50:00,
2013-08-24 12:55:00,98.5,69.3,29.99,East,80,5.0,7.0,39,0.00,,,0.00,VWS V14.01,2013-08-24 17:55:00,
2013-08-24 13:00:00,98.5,70.0,29.98,NNE,27,3.0,7.0,40,0.00,,,0.00,VWS V14.01,2013-08-24 18:00:00,
2013-08-24 13:05:00,99.0,70.5,29.98,SE,134,2.0,3.0,40,0.00,,,0.00,VWS V14.01,2013-08-24 18:05:00,
2013-08-24 13:10:00,99.1,69.8,29.98,East,96,3.0,4.0,39,0.00,,,0.00,VWS V14.01,2013-08-24 18:10:00,
2013-08-24 13:15:00,98.7,69.5,29.98,ENE,73,2.0,6.0,39,0.00,,,0.00,VWS V14.01,2013-08-24 18:15:00,
2013-08-24 13:20:00,98.4,69.2,29.98,ENE,61,2.0,4.0,39,0.00,,,0.00,VWS V14.01,2013-08-24 18:20:00,
2013-08-24 13:25:00,98.0,69.6,29.98,East,88,3.0,6.0,40,0.00,,,0.00,VWS V14.01,2013-08-24 18:25:00,
2013-08-24 13:30:00,97.7,69.3,29.97,East,79,1.0,2.0,40,0.00,,,0.00,VWS V14.01,2013-08-24 18:30:00,
2013-08-24 13:35:00,97.9,68.8,29.97,SE,141,5.0,5.0,39,0.00,,,0.00,VWS V14.01,2013-08-24 18:35:00,
2013-08-24 13:40:00,98.2,69.0,29.97,ESE,116,2.0,9.0,39,0.00,,,0.00,VWS V14.01,2013-08-24 18:40:00,
2013-08-24 13:45:00,98.7,70.2,29.97,ENE,61,8.0,8.0,40,0.00,,,0.00,VWS V14.01,2013-08-24 18:45:00,
2013-08-24 13:50:00,99.1,67.5,29.97,ESE,105,5.0,5.0,36,0.00,,,0.00,VWS V14.01,2013-08-24 18:50:00,
2013-08-24 13:55:00,99.6,69.5,29.97,SE,141,5.0,6.0,38,0.00,,,0.00,VWS V14.01,2013-08-24 18:55:00,
2013-08-24 14:00:00,100.2,68.4,29.96,ENE,78,7.0,11.0,36,0.00,,,0.00,VWS V14.01,2013-08-24 19:00:00,
2013-08-24 14:05:00,100.5,67.1,29.96,ESE,119,5.0,8.0,34,0.00,,,0.00,VWS V14.01,2013-08-24 19:05:00,
2013-08-24 14:10:00,101.0,69.2,29.96,ESE,114,3.0,5.0,36,0.00,,,0.00,VWS V14.01,2013-08-24 19:10:00,
2013-08-24 14:15:00,101.2,66.8,29.96,East,88,5.0,7.0,33,0.00,,,0.00,VWS V14.01,2013-08-24 19:15:00,
2013-08-24 14:20:00,101.4,67.8,29.96,ESE,119,5.0,5.0,34,0.00,,,0.00,VWS V14.01,2013-08-24 19:20:00,
2013-08-24 14:25:00,101.4,67.0,29.96,East,95,0.0,5.0,33,0.00,,,0.00,VWS V14.01,2013-08-24 19:25:00,
2013-08-24 14:30:00,101.6,67.1,29.96,ENE,75,5.0,11.0,33,0.00,,,0.00,VWS V14.01,2013-08-24 19:30:00,
2013-08-24 14:35:00,101.7,67.2,29.95,NNE,20,4.0,7.0,33,0.00,,,0.00,VWS V14.01,2013-08-24 19:35:00,
2013-08-24 14:40:00,101.6,67.1,29.95,North,11,9.0,11.0,33,0.00,,,0.00,VWS V14.01,2013-08-24 19:40:00,
2013-08-24 14:45:00,101.1,66.7,29.95,North,5,4.0,5.0,33,0.00,,,0.00,VWS V14.01,2013-08-24 19:45:00,
2013-08-24 14:49:00,100.9,66.5,29.95,East,97,5.0,7.0,33,0.00,,,0.00,VWS V14.01,2013-08-24 19:49:00,
2013-08-24 14:54:00,101.0,66.6,29.95,East,90,5.0,8.0,33,0.00,,,0.00,VWS V14.01,2013-08-24 19:54:00,
2013-08-24 14:59:00,101.0,66.6,29.94,ESE,108,4.0,11.0,33,0.00,,,0.00,VWS V14.01,2013-08-24 19:59:00,
2013-08-24 15:04:00,101.1,66.7,29.94,East,85,8.0,13.0,33,0.00,,,0.00,VWS V14.01,2013-08-24 20:04:00,
2013-08-24 15:09:00,101.2,66.8,29.94,NE,34,4.0,7.0,33,0.00,,,0.00,VWS V14.01,2013-08-24 20:09:00,
2013-08-24 15:14:00,101.4,67.0,29.94,NE,52,4.0,8.0,33,0.00,,,0.00,VWS V14.01,2013-08-24 20:14:00,
2013-08-24 15:19:00,101.6,67.1,29.93,NNE,22,3.0,4.0,33,0.00,,,0.00,VWS V14.01,2013-08-24 20:19:00,
2013-08-24 15:24:00,101.7,68.1,29.93,East,83,5.0,6.0,34,0.00,,,0.00,VWS V14.01,2013-08-24 20:24:00,
2013-08-24 15:29:00,101.9,66.5,29.93,East,98,8.0,8.0,32,0.00,,,0.00,VWS V14.01,2013-08-24 20:29:00,
2013-08-24 15:34:00,101.9,65.6,29.93,East,94,0.0,3.0,31,0.00,,,0.00,VWS V14.01,2013-08-24 20:34:00,
2013-08-24 15:39:00,102.1,65.8,29.92,East,82,9.0,10.0,31,0.00,,,0.00,VWS V14.01,2013-08-24 20:39:00,
2013-08-24 15:44:00,102.3,65.9,29.92,ENE,71,3.0,6.0,31,0.00,,,0.00,VWS V14.01,2013-08-24 20:44:00,
2013-08-24 15:49:00,102.5,66.1,29.92,NNE,24,9.0,10.0,31,0.00,,,0.00,VWS V14.01,2013-08-24 20:49:00,
2013-08-24 15:54:00,102.5,65.2,29.92,NE,56,11.0,11.0,30,0.00,,,0.00,VWS V14.01,2013-08-24 20:54:00,
2013-08-24 15:59:00,102.5,65.2,29.92,East,80,13.0,13.0,30,0.00,,,0.00,VWS V14.01,2013-08-24 20:59:00,
2013-08-24 16:04:00,102.2,64.9,29.92,ESE,121,4.0,4.0,30,0.00,,,0.00,VWS V14.01,2013-08-24 21:04:00,
2013-08-24 16:09:00,102.3,65.0,29.92,ENE,65,5.0,5.0,30,0.00,,,0.00,VWS V14.01,2013-08-24 21:09:00,
2013-08-24 16:14:00,102.4,65.1,29.92,NNE,30,3.0,3.0,30,0.00,,,0.00,VWS V14.01,2013-08-24 21:14:00,
2013-08-24 16:19:00,102.6,64.3,29.92,ESE,105,5.0,5.0,29,0.00,,,0.00,VWS V14.01,2013-08-24 21:19:00,
2013-08-24 16:24:00,102.6,64.3,29.92,NNE,30,4.0,7.0,29,0.00,,,0.00,VWS V14.01,2013-08-24 21:24:00,
2013-08-24 16:29:00,102.7,64.4,29.91,NNE,20,6.0,6.0,29,0.00,,,0.00,VWS V14.01,2013-08-24 21:29:00,
2013-08-24 16:34:00,102.7,64.4,29.91,East,88,5.0,5.0,29,0.00,,,0.00,VWS V14.01,2013-08-24 21:34:00,
2013-08-24 16:39:00,102.7,64.4,29.91,ENE,63,8.0,10.0,29,0.00,,,0.00,VWS V14.01,2013-08-24 21:39:00,
2013-08-24 16:44:00,102.5,65.2,29.91,NE,53,6.0,9.0,30,0.00,,,0.00,VWS V14.01,2013-08-24 21:44:00,
2013-08-24 16:49:00,102.3,65.0,29.91,NE,51,3.0,4.0,30,0.00,,,0.00,VWS V14.01,2013-08-24 21:49:00,
2013-08-24 16:54:00,102.2,64.9,29.91,ESE,107,2.0,3.0,30,0.00,,,0.00,VWS V14.01,2013-08-24 21:54:00,
2013-08-24 16:59:00,101.9,65.6,29.91,NE,46,5.0,9.0,31,0.00,,,0.00,VWS V14.01,2013-08-24 21:59:00,
2013-08-24 17:04:00,101.7,65.4,29.91,NNE,32,3.0,7.0,31,0.00,,,0.00,VWS V14.01,2013-08-24 22:04:00,
2013-08-24 17:09:00,101.4,65.2,29.91,ESE,104,2.0,3.0,31,0.00,,,0.00,VWS V14.01,2013-08-24 22:09:00,
2013-08-24 17:14:00,101.4,66.1,29.91,ENE,57,7.0,8.0,32,0.00,,,0.00,VWS V14.01,2013-08-24 22:14:00,
2013-08-24 17:19:00,101.3,64.1,29.91,ENE,59,4.0,8.0,30,0.00,,,0.00,VWS V14.01,2013-08-24 22:19:00,
2013-08-24 17:24:00,101.2,65.0,29.91,East,97,6.0,8.0,31,0.00,,,0.00,VWS V14.01,2013-08-24 22:24:00,
2013-08-24 17:29:00,101.1,64.9,29.91,NE,53,6.0,6.0,31,0.00,,,0.00,VWS V14.01,2013-08-24 22:29:00,
2013-08-24 17:34:00,100.8,64.7,29.91,NNE,33,5.0,7.0,31,0.00,,,0.00,VWS V14.01,2013-08-24 22:34:00,
2013-08-24 17:39:00,100.8,64.7,29.91,East,82,5.0,8.0,31,0.00,,,0.00,VWS V14.01,2013-08-24 22:39:00,
2013-08-24 17:44:00,100.9,65.7,29.91,NNE,19,4.0,6.0,32,0.00,,,0.00,VWS V14.01,2013-08-24 22:44:00,
2013-08-24 17:49:00,101.0,65.7,29.90,East,101,2.0,8.0,32,0.00,,,0.00,VWS V14.01,2013-08-24 22:49:00,
2013-08-24 17:54:00,101.0,65.7,29.90,East,96,2.0,3.0,32,0.00,,,0.00,VWS V14.01,2013-08-24 22:54:00,
2013-08-24 17:59:00,101.0,65.7,29.90,East,90,10.0,10.0,32,0.00,,,0.00,VWS V14.01,2013-08-24 22:59:00,
2013-08-24 18:04:00,100.6,66.3,29.90,East,82,8.0,8.0,33,0.00,,,0.00,VWS V14.01,2013-08-24 23:04:00,
2013-08-24 18:09:00,100.0,66.6,29.90,NNE,22,6.0,10.0,34,0.00,,,0.00,VWS V14.01,2013-08-24 23:09:00,
2013-08-24 18:14:00,99.4,66.1,29.90,ENE,77,4.0,7.0,34,0.00,,,0.00,VWS V14.01,2013-08-24 23:14:00,
2013-08-24 18:19:00,98.9,65.7,29.90,NE,37,6.0,12.0,34,0.00,,,0.00,VWS V14.01,2013-08-24 23:19:00,
2013-08-24 18:24:00,98.4,65.2,29.90,NE,53,7.0,12.0,34,0.00,,,0.00,VWS V14.01,2013-08-24 23:24:00,
2013-08-24 18:29:00,98.0,65.7,29.90,East,84,1.0,1.0,35,0.00,,,0.00,VWS V14.01,2013-08-24 23:29:00,
2013-08-24 18:34:00,97.8,64.7,29.90,East,89,5.0,5.0,34,0.00,,,0.00,VWS V14.01,2013-08-24 23:34:00,
2013-08-24 18:39:00,97.7,65.4,29.90,East,86,8.0,13.0,35,0.00,,,0.00,VWS V14.01,2013-08-24 23:39:00,
2013-08-24 18:44:00,97.4,66.0,29.90,East,99,5.0,5.0,36,0.00,,,0.00,VWS V14.01,2013-08-24 23:44:00,
2013-08-24 18:49:00,97.3,65.9,29.90,NNE,28,3.0,4.0,36,0.00,,,0.00,VWS V14.01,2013-08-24 23:49:00,
2013-08-24 18:54:00,97.1,65.7,29.90,ENE,75,1.0,1.0,36,0.00,,,0.00,VWS V14.01,2013-08-24 23:54:00,
2013-08-24 18:59:00,96.9,65.6,29.90,ENE,75,5.0,8.0,36,0.00,,,0.00,VWS V14.01,2013-08-24 23:59:00,
2013-08-24 19:04:00,96.7,66.2,29.90,NE,53,5.0,5.0,37,0.00,,,0.00,VWS V14.01,2013-08-25 00:04:00,
2013-08-24 19:09:00,96.5,66.0,29.90,NE,44,0.0,3.0,37,0.00,,,0.00,VWS V14.01,2013-08-25 00:09:00,
2013-08-24 19:14:00,96.3,65.8,29.90,NE,46,6.0,12.0,37,0.00,,,0.00,VWS V14.01,2013-08-25 00:14:00,
2013-08-24 19:19:00,96.1,66.4,29.90,East,87,14.0,15.0,38,0.00,,,0.00,VWS V14.01,2013-08-25 00:19:00,
2013-08-24 19:24:00,95.8,66.1,29.90,ESE,117,4.0,7.0,38,0.00,,,0.00,VWS V14.01,2013-08-25 00:24:00,
2013-08-24 19:29:00,95.5,65.9,29.90,ESE,103,7.0,7.0,38,0.00,,,0.00,VWS V14.01,2013-08-25 00:29:00,
2013-08-24 19:34:00,95.3,65.7,29.90,East,101,6.0,6.0,38,0.00,,,0.00,VWS V14.01,2013-08-25 00:34:00,
2013-08-24 19:39:00,95.0,65.4,29.90,East,94,7.0,7.0,38,0.00,,,0.00,VWS V14.01,2013-08-25 00:39:00,
2013-08-24 19:44:00,94.7,65.9,29.90,NE,53,10.0,11.0,39,0.00,,,0.00,VWS V14.01,2013-08-25 00:44:00,
2013-08-24 19:49:00,94.5,66.5,29.91,ESE,103,9.0,9.0,40,0.00,,,0.00,VWS V14.01,2013-08-25 00:49:00,
2013-08-24 19:54:00,94.2,66.2,29.91,East,99,7.0,8.0,40,0.00,,,0.00,VWS V14.01,2013-08-25 00:54:00,
2013-08-24 19:59:00,93.9,66.6,29.91,East,95,5.0,5.0,41,0.00,,,0.00,VWS V14.01,2013-08-25 00:59:00,
2013-08-24 20:04:00,93.6,66.4,29.91,East,94,2.0,3.0,41,0.00,,,0.00,VWS V14.01,2013-08-25 01:04:00,
2013-08-24 20:09:00,93.3,66.8,29.92,East,87,9.0,10.0,42,0.00,,,0.00,VWS V14.01,2013-08-25 01:09:00,
2013-08-24 20:14:00,93.0,66.5,29.92,East,86,5.0,6.0,42,0.00,,,0.00,VWS V14.01,2013-08-25 01:14:00,
2013-08-24 20:19:00,92.8,66.4,29.92,East,82,5.0,5.0,42,0.00,,,0.00,VWS V14.01,2013-08-25 01:19:00,
2013-08-24 20:24:00,92.6,66.2,29.92,East,86,5.0,7.0,42,0.00,,,0.00,VWS V14.01,2013-08-25 01:24:00,
2013-08-24 20:29:00,92.3,66.6,29.92,East,88,3.0,7.0,43,0.00,,,0.00,VWS V14.01,2013-08-25 01:29:00,
2013-08-24 20:34:00,92.1,66.4,29.92,SE,124,2.0,4.0,43,0.00,,,0.00,VWS V14.01,2013-08-25 01:34:00,
2013-08-24 20:39:00,91.9,66.2,29.93,ESE,106,5.0,6.0,43,0.00,,,0.00,VWS V14.01,2013-08-25 01:39:00,
2013-08-24 20:44:00,91.7,66.7,29.93,East,88,6.0,6.0,44,0.00,,,0.00,VWS V14.01,2013-08-25 01:44:00,
2013-08-24 20:49:00,91.5,66.5,29.93,ESE,105,5.0,5.0,44,0.00,,,0.00,VWS V14.01,2013-08-25 01:49:00,
2013-08-24 20:54:00,91.3,66.3,29.93,ESE,111,2.0,2.0,44,0.00,,,0.00,VWS V14.01,2013-08-25 01:54:00,
2013-08-24 20:59:00,91.2,66.3,29.93,ESE,102,2.0,3.0,44,0.00,,,0.00,VWS V14.01,2013-08-25 01:59:00,
2013-08-24 21:04:00,91.0,66.1,29.94,East,90,2.0,3.0,44,0.00,,,0.00,VWS V14.01,2013-08-25 02:04:00,
2013-08-24 21:09:00,90.8,66.6,29.94,ESE,105,4.0,4.0,45,0.00,,,0.00,VWS V14.01,2013-08-25 02:09:00,
2013-08-24 21:14:00,90.7,66.5,29.95,East,86,3.0,3.0,45,0.00,,,0.00,VWS V14.01,2013-08-25 02:14:00,
2013-08-24 21:19:00,90.5,66.3,29.95,East,96,1.0,2.0,45,0.00,,,0.00,VWS V14.01,2013-08-25 02:19:00,
2013-08-24 21:24:00,90.4,66.2,29.95,East,95,1.0,1.0,45,0.00,,,0.00,VWS V14.01,2013-08-25 02:24:00,
2013-08-24 21:29:00,90.2,66.0,29.95,ENE,75,5.0,5.0,45,0.00,,,0.00,VWS V14.01,2013-08-25 02:29:00,
2013-08-24 21:34:00,90.1,66.6,29.95,ENE,76,0.0,0.0,46,0.00,,,0.00,VWS V14.01,2013-08-25 02:34:00,
2013-08-24 21:39:00,89.9,66.4,29.95,East,80,3.0,5.0,46,0.00,,,0.00,VWS V14.01,2013-08-25 02:39:00,
2013-08-24 21:44:00,89.7,66.2,29.96,East,82,2.0,5.0,46,0.00,,,0.00,VWS V14.01,2013-08-25 02:44:00,
2013-08-24 21:49:00,89.6,66.7,29.96,East,81,0.0,3.0,47,0.00,,,0.00,VWS V14.01,2013-08-25 02:49:00,
2013-08-24 21:54:00,89.4,66.5,29.96,ENE,76,1.0,5.0,47,0.00,,,0.00,VWS V14.01,2013-08-25 02:54:00,
2013-08-24 21:59:00,89.2,66.3,29.96,East,82,1.0,2.0,47,0.00,,,0.00,VWS V14.01,2013-08-25 02:59:00,
2013-08-24 22:04:00,89.1,66.9,29.96,East,80,1.0,3.0,48,0.00,,,0.00,VWS V14.01,2013-08-25 03:04:00,
2013-08-24 22:09:00,89.0,66.8,29.96,ENE,75,0.0,3.0,48,0.00,,,0.00,VWS V14.01,2013-08-25 03:09:00,
2013-08-24 22:14:00,89.0,66.8,29.96,ENE,75,1.0,3.0,48,0.00,,,0.00,VWS V14.01,2013-08-25 03:14:00,
2013-08-24 22:19:00,88.5,66.9,29.96,ENE,76,0.0,2.0,49,0.00,,,0.00,VWS V14.01,2013-08-25 03:19:00,
2013-08-24 22:24:00,88.3,66.7,29.96,ENE,76,0.0,2.0,49,0.00,,,0.00,VWS V14.01,2013-08-25 03:24:00,
2013-08-24 22:29:00,88.1,66.6,29.97,ENE,76,1.0,2.0,49,0.00,,,0.00,VWS V14.01,2013-08-25 03:29:00,
2013-08-24 22:34:00,87.9,66.9,29.97,East,81,1.0,3.0,50,0.00,,,0.00,VWS V14.01,2013-08-25 03:34:00,
2013-08-24 22:39:00,87.6,66.7,29.97,East,81,0.0,3.0,50,0.00,,,0.00,VWS V14.01,2013-08-25 03:39:00,
2013-08-24 22:44:00,87.4,67.1,29.97,East,80,3.0,3.0,51,0.00,,,0.00,VWS V14.01,2013-08-25 03:44:00,
2013-08-24 22:49:00,87.2,66.9,29.97,ENE,77,1.0,5.0,51,0.00,,,0.00,VWS V14.01,2013-08-25 03:49:00,
2013-08-24 22:54:00,87.0,67.3,29.97,East,80,0.0,5.0,52,0.00,,,0.00,VWS V14.01,2013-08-25 03:54:00,
2013-08-24 22:59:00,86.9,67.2,29.98,East,84,1.0,5.0,52,0.00,,,0.00,VWS V14.01,2013-08-25 03:59:00,
2013-08-24 23:01:00,86.9,67.2,29.98,East,79,0.0,2.0,52,0.00,,,0.00,VWS V14.01,2013-08-25 04:01:00,
2013-08-24 23:02:00,86.9,67.2,29.98,East,79,0.0,3.0,52,0.00,,,0.00,VWS V14.01,2013-08-25 04:02:00,
2013-08-24 23:07:00,86.8,67.1,29.98,East,85,1.0,2.0,52,0.00,,,0.00,VWS V14.01,2013-08-25 04:07:00,
2013-08-24 23:12:00,86.7,67.0,29.98,East,86,0.0,2.0,52,0.00,,,0.00,VWS V14.01,2013-08-25 04:12:00,
2013-08-24 23:17:00,86.6,67.4,29.98,ESE,113,4.0,5.0,53,0.00,,,0.00,VWS V14.01,2013-08-25 04:17:00,
2013-08-24 23:22:00,86.5,67.3,29.98,ENE,63,5.0,5.0,53,0.00,,,0.00,VWS V14.01,2013-08-25 04:22:00,
2013-08-24 23:27:00,86.4,67.3,29.99,ESE,107,4.0,7.0,53,0.00,,,0.00,VWS V14.01,2013-08-25 04:27:00,
2013-08-24 23:32:00,86.3,67.7,29.99,East,96,2.0,6.0,54,0.00,,,0.00,VWS V14.01,2013-08-25 04:32:00,
2013-08-24 23:37:00,86.2,67.6,29.99,East,90,2.0,5.0,54,0.00,,,0.00,VWS V14.01,2013-08-25 04:37:00,
2013-08-24 23:42:00,86.2,67.6,29.99,East,94,2.0,5.0,54,0.00,,,0.00,VWS V14.01,2013-08-25 04:42:00,
2013-08-24 23:47:00,86.2,67.6,29.99,ESE,121,4.0,9.0,54,0.00,,,0.00,VWS V14.01,2013-08-25 04:47:00,
2013-08-24 23:52:00,86.2,67.6,29.99,East,98,2.0,7.0,54,0.00,,,0.00,VWS V14.01,2013-08-25 04:52:00,
2013-08-24 23:57:00,86.2,68.2,29.99,East,82,5.0,7.0,55,0.00,,,0.00,VWS V14.01,2013-08-25 04:57:00,